TRK2 LTAC-LTAJ

Flight info

Callsign TRK2
Flight time N/A
Altitude 37000
Route YUCEL UA17 BELSU UL605 RATSI UA17 REMPO L605 ASBOM
Aircraft A333/H-SDE3GHIJ2J3J5M1RVWXY/LB2D1

Departure

Time 2026-05-01 14:56
Airport Esenboğa International Airport (LTAC)

Arrival

Time N/A
Airport Gaziantep Oğuzeli International Airport (LTAJ)
Time Latitude Longitude Altitude Speed Heading
2026-05-01 14:38 40.12294 33.00225 3141 ft 0 kts 258°
2026-05-01 14:42 40.12293 33.00216 3141 ft 0 kts 258°
2026-05-01 14:44 40.12295 33.00231 3141 ft 2 kts 258°
2026-05-01 14:44 40.12299 33.00251 3141 ft 2 kts 258°
2026-05-01 14:45 40.12300 33.00272 3142 ft 2 kts 292°
2026-05-01 14:45 40.12288 33.00289 3142 ft 0 kts 350°
2026-05-01 14:48 40.12322 33.00281 3142 ft 7 kts 349°
2026-05-01 14:49 40.12427 33.00255 3140 ft 10 kts 349°
2026-05-01 14:49 40.12569 33.00219 3135 ft 10 kts 342°
2026-05-01 14:50 40.12592 33.00119 3132 ft 9 kts 271°
2026-05-01 14:50 40.12618 32.99951 3134 ft 7 kts 335°
2026-05-01 14:51 40.12683 32.99945 3129 ft 12 kts
2026-05-01 14:51 40.12833 32.99983 3130 ft 11 kts 34°
2026-05-01 14:52 40.12997 33.00140 3126 ft 19 kts 36°
2026-05-01 14:52 40.13106 33.00243 3130 ft 20 kts 36°
2026-05-01 14:52 40.13349 33.00472 3138 ft 23 kts 36°
2026-05-01 14:53 40.13486 33.00599 3136 ft 25 kts 35°
2026-05-01 14:53 40.13633 33.00743 3131 ft 28 kts 38°
2026-05-01 14:53 40.13783 33.00887 3129 ft 25 kts 36°
2026-05-01 14:53 40.13912 33.01010 3127 ft 21 kts 36°
2026-05-01 14:54 40.14013 33.01072 3135 ft 13 kts
2026-05-01 14:54 40.14095 33.01000 3136 ft 17 kts 295°
2026-05-01 14:54 40.14148 33.00866 3130 ft 16 kts 306°
2026-05-01 14:54 40.14210 33.00755 3127 ft 12 kts 306°
2026-05-01 14:55 40.14217 33.00691 3130 ft 5 kts 233°
2026-05-01 14:55 40.14201 33.00676 3126 ft 0 kts 216°
2026-05-01 14:55 40.14027 33.00510 3124 ft 60 kts 216°
2026-05-01 14:56 40.13536 33.00042 3131 ft 114 kts 216°
2026-05-01 14:56 40.12762 32.99304 3137 ft 161 kts 217°
2026-05-01 14:56 40.11783 32.98381 3606 ft 173 kts 218°
2026-05-01 14:56 40.10809 32.97412 4412 ft 179 kts 221°
2026-05-01 14:57 40.09795 32.96405 5033 ft 194 kts 220°
2026-05-01 14:57 40.07338 32.94094 6003 ft 230 kts 218°
2026-05-01 14:57 40.06028 32.92880 6862 ft 231 kts 218°
2026-05-01 14:58 40.04732 32.91672 7859 ft 226 kts 219°
2026-05-01 14:58 40.03388 32.90632 8865 ft 225 kts 207°
2026-05-01 14:58 40.01868 32.90182 9893 ft 227 kts 187°
2026-05-01 14:58 40.00308 32.90613 10715 ft 237 kts 159°
2026-05-01 14:59 39.99020 32.92039 11522 ft 250 kts 140°
2026-05-01 14:59 39.97897 32.93811 12198 ft 257 kts 136°
2026-05-01 14:59 39.96786 32.95668 12835 ft 262 kts 136°
2026-05-01 14:59 39.95658 32.97552 13528 ft 265 kts 136°
2026-05-01 15:00 39.93361 33.01336 14098 ft 266 kts 137°
2026-05-01 15:00 39.92193 33.03243 14586 ft 271 kts 136°
2026-05-01 15:00 39.91009 33.05170 15218 ft 273 kts 136°
2026-05-01 15:01 39.89817 33.07109 15842 ft 276 kts 136°
2026-05-01 15:01 39.88612 33.09065 16439 ft 278 kts 136°
2026-05-01 15:01 39.87391 33.11045 17010 ft 284 kts 136°
2026-05-01 15:01 39.86120 33.13093 17300 ft 299 kts 136°
2026-05-01 15:02 39.84780 33.15252 17559 ft 315 kts 136°
2026-05-01 15:02 39.83855 33.16744 17713 ft 325 kts 135°
2026-05-01 15:02 39.81896 33.19908 18056 ft 346 kts 135°
2026-05-01 15:02 39.80355 33.22396 18312 ft 360 kts 135°
2026-05-01 15:03 39.78754 33.24984 18531 ft 374 kts 135°
2026-05-01 15:03 39.77087 33.27674 18769 ft 388 kts 134°
2026-05-01 15:03 39.75367 33.30449 18985 ft 401 kts 134°
2026-05-01 15:03 39.73591 33.33311 19202 ft 413 kts 134°
2026-05-01 15:04 39.71763 33.36252 19425 ft 424 kts 134°
2026-05-01 15:04 39.69887 33.39271 19630 ft 434 kts 134°
2026-05-01 15:04 39.67981 33.42335 20043 ft 438 kts 134°
2026-05-01 15:04 39.66061 33.45420 20527 ft 441 kts 134°
2026-05-01 15:05 39.64128 33.48526 20992 ft 443 kts 134°
2026-05-01 15:05 39.62186 33.51652 21457 ft 446 kts 134°
2026-05-01 15:05 39.60243 33.54783 22062 ft 445 kts 134°
2026-05-01 15:05 39.58297 33.57917 22603 ft 447 kts 134°
2026-05-01 15:06 39.56340 33.61066 23072 ft 450 kts 134°
2026-05-01 15:06 39.54370 33.64232 23516 ft 453 kts 134°
2026-05-01 15:06 39.52387 33.67417 23923 ft 455 kts 134°
2026-05-01 15:06 39.50396 33.70614 24314 ft 458 kts 134°
2026-05-01 15:07 39.48387 33.73833 24720 ft 460 kts 134°
2026-05-01 15:07 39.46373 33.77061 25141 ft 462 kts 134°
2026-05-01 15:07 39.44337 33.80289 25569 ft 464 kts 134°
2026-05-01 15:07 39.42279 33.83510 25968 ft 465 kts 134°
2026-05-01 15:08 39.40203 33.86737 26350 ft 468 kts 135°
2026-05-01 15:08 39.38114 33.89972 26753 ft 470 kts 135°
2026-05-01 15:08 39.36012 33.93224 27168 ft 472 kts 135°
2026-05-01 15:08 39.33901 33.96491 27568 ft 475 kts 134°
2026-05-01 15:09 39.31779 33.99775 27972 ft 477 kts 134°
2026-05-01 15:09 39.29672 34.03038 28861 ft 468 kts 134°
2026-05-01 15:09 39.27612 34.06233 29854 ft 458 kts 134°
2026-05-01 15:09 39.25613 34.09333 30426 ft 454 kts 134°
2026-05-01 15:10 39.23587 34.12463 30737 ft 456 kts 134°
2026-05-01 15:10 39.19491 34.18768 31308 ft 461 kts 134°
2026-05-01 15:10 39.17425 34.21944 31574 ft 463 kts 134°
2026-05-01 15:11 39.15345 34.25139 31802 ft 467 kts 134°
2026-05-01 15:11 39.11547 34.32015 32528 ft 471 kts 129°
2026-05-01 15:11 39.09573 34.35347 33009 ft 466 kts 133°
2026-05-01 15:12 39.07552 34.38598 33419 ft 465 kts 134°
2026-05-01 15:12 39.03459 34.45012 34126 ft 463 kts 134°
2026-05-01 15:12 39.01393 34.48200 34361 ft 465 kts 134°
2026-05-01 15:13 38.95102 34.57857 34961 ft 472 kts 134°
2026-05-01 15:14 38.90879 34.64338 35401 ft 474 kts 134°
2026-05-01 15:14 38.88761 34.67588 35636 ft 476 kts 134°
2026-05-01 15:14 38.84505 34.74107 36028 ft 478 kts 134°
2026-05-01 15:15 38.80209 34.80673 36413 ft 482 kts 134°
2026-05-01 15:15 38.75890 34.87263 36840 ft 484 kts 135°
2026-05-01 15:16 38.67355 35.00252 36867 ft 473 kts 135°
2026-05-01 15:18 38.56739 35.16313 36873 ft 472 kts 135°
2026-05-01 15:19 38.48195 35.29061 36867 ft 471 kts 136°
2026-05-01 15:19 38.41733 35.38475 36872 ft 471 kts 136°
2026-05-01 15:20 38.35243 35.47914 36882 ft 472 kts 136°
2026-05-01 15:21 38.30916 35.54204 36883 ft 471 kts 136°
2026-05-01 15:21 38.26608 35.60457 36891 ft 469 kts 136°
2026-05-01 15:22 38.20143 35.69813 36898 ft 470 kts 136°
2026-05-01 15:22 38.17975 35.72940 36741 ft 475 kts 136°
2026-05-01 15:22 38.15775 35.76110 36068 ft 480 kts 136°
2026-05-01 15:23 38.13555 35.79307 35296 ft 485 kts 136°
2026-05-01 15:23 38.11318 35.82527 34534 ft 485 kts 135°
2026-05-01 15:23 38.09093 35.85732 33530 ft 483 kts 135°
2026-05-01 15:23 38.06874 35.88926 32272 ft 483 kts 135°
2026-05-01 15:24 38.04646 35.92126 30940 ft 485 kts 135°
2026-05-01 15:24 38.02416 35.95326 30087 ft 482 kts 135°
2026-05-01 15:24 38.00203 35.98500 29476 ft 479 kts 135°
2026-05-01 15:24 37.98008 36.01644 28923 ft 474 kts 135°
2026-05-01 15:25 37.95837 36.04752 28380 ft 469 kts 135°
2026-05-01 15:25 37.93681 36.07835 27823 ft 465 kts 135°
2026-05-01 15:25 37.91546 36.10884 27283 ft 461 kts 135°
2026-05-01 15:25 37.89427 36.13907 26744 ft 457 kts 135°
2026-05-01 15:26 37.87325 36.16902 26203 ft 453 kts 135°
2026-05-01 15:26 37.85242 36.19866 25655 ft 450 kts 135°
2026-05-01 15:26 37.83166 36.22818 25118 ft 447 kts 135°
2026-05-01 15:26 37.81136 36.25707 24576 ft 444 kts 135°
2026-05-01 15:27 37.79091 36.28618 24050 ft 441 kts 135°
2026-05-01 15:27 37.77057 36.31514 23517 ft 439 kts 135°
2026-05-01 15:27 37.75038 36.34386 22919 ft 436 kts 135°
2026-05-01 15:28 37.71052 36.40053 21860 ft 427 kts 135°
2026-05-01 15:28 37.69725 36.41940 21494 ft 424 kts 135°
2026-05-01 15:28 37.67781 36.44704 21009 ft 418 kts 135°
2026-05-01 15:29 37.63945 36.50130 19969 ft 411 kts 135°
2026-05-01 15:29 37.62051 36.52802 19465 ft 407 kts 135°
2026-05-01 15:29 37.58308 36.58083 18467 ft 401 kts 135°
2026-05-01 15:30 37.54622 36.63283 17399 ft 392 kts 135°
2026-05-01 15:31 37.47570 36.73268 15432 ft 375 kts 135°
2026-05-01 15:31 37.44159 36.78143 14476 ft 367 kts 134°
2026-05-01 15:32 37.40810 36.82922 13514 ft 361 kts 134°
2026-05-01 15:32 37.37524 36.87606 12550 ft 352 kts 134°
2026-05-01 15:33 37.32734 36.94420 11166 ft 342 kts 135°
2026-05-01 15:34 37.28151 37.00933 10478 ft 313 kts 134°